Погода в Высоком

Украина / Киевская область     49°14′56″N   29°48′54″E
темп.,
°C
ветер,
м/с
пор.,
м/с
влажн.,
%
обл.,
%
осадки,
мм/ч
давл.,
гПа
погр.,
м
13 мая, чт
чт1300:00+6юв339420 0.0 101261
03:00+5ююв3394100 0.0 101151
06:00+5ююв3595100 0.0 101199
09:00+11ююв467359 0.0 1010584
12:00+11ю6874100 0.0 1010845
15:00+9юв61287100 0.3 1010510
18:00+14ююв71074100 0.0 10081041
21:00+11ююв41190100 0.2 1009518
14 мая, пт
пт1400:00+11ююв51388100 0.3 1008551
03:00+8юв411886 0.3 1008263
06:00+7ююв498716 0.0 1008199
09:00+13ююв476669 0.0 1007405
12:00+13ююв3674100 0.0 1007514
15:00+13юз3475100 0.0 1006261
18:00+10зюз369299 0.9 1007253
21:00+10ююз3792100 0.9 1008172
15 мая, сб
сб1500:00+11ююз3897100 1.9 1008235
03:00+11юз369598 2.4 1009149
06:00+10юз3592100 0.0 1010126
09:00+13юз487841 0.0 1011459
12:00+16юз686783 0.4 10121373
15:00+17зюз576646 0.9 10121351
18:00+16з45695 0.8 1012952
21:00+12сз11855 0.8 101310
16 мая, вс
вс1600:00+11юв11875 0.0 101310
03:00+10вюв22890 0.0 101311
06:00+10вюв22915 0.0 101322
09:00+16вюв34758 0.0 1013355
12:00+20вюв3462100 0.0 10121058
15:00+21ююв3555100 1.0 10111558
18:00+21юв3462100 0.1 1010386
21:00+17в2275100 0.2 101017
17 мая, пн
пн1700:00+16вюв3477100 0.0 100960
03:00+15вюв3486100 0.3 100884
06:00+15в2285100 0.0 100715
09:00+16ююв3589100 0.8 1008332
12:00+17ююв1183100 0.8 1007397
15:00+18всв227897 1.7 1007656
18:00+18всв1174100 1.3 1008644
21:00+15з119148 1.8 100811